Change the Weather History Date:

Sunday, June 30, 2013

  Actual Average Record
Temperature  
Mean Temperature 74 °F 80 °F  
Max Temperature 86 °F 91 °F 102 °F (1988)
Min Temperature 62 °F 69 °F 53 °F (1985)
Degree Days  
Heating Degree Days 0 0  
Month to date heating degree days 0 0  
Since 1 June heating degree days 0 0  
Since 1 July heating degree days 3050 3042  
Cooling Degree Days 9 15  
Month to date cooling degree days 388 378  
Year to date cooling degree days 620 595  
Since 1 June cooling degree days 388 378  
Growing Degree Days 23 (Base 50)    
Moisture  
Dew Point 59 °F    
Average Humidity 67    
Maximum Humidity 93    
Minimum Humidity 40    
Precipitation  
Precipitation 0.00 in 0.14 in 2.00 in (1997)
Month to date precipitation 2.86 4.51  
Year to date precipitation 13.96 25.64  
Snow  
Snow 0.00 in - - ()
Month to date snowfall 0.0  
Since 1 June snowfall 0.0  
Since 1 July snowfall 4.5  
Snow Depth 0.00 in    
Sea Level Pressure  
Sea Level Pressure 29.84 in    
Wind  
Wind Speed 4 mph (North)    
Max Wind Speed 14 mph    
Max Gust Speed 23 mph    
Visibility 10 miles    
Events      
T = Trace of Precipitation, MM = Missing Value Source: NWS Daily Summary

Daily Weather History Graph

Daily Weather History Graph

Search for Another Location

Airport or City:

Trip Planner

Search our weather history database for the weather conditions in past years. The results will help you decide how hot, cold, wet, or windy it might be!

Date:

Astronomy

Jun. 30, 2013 Rise Set
Actual Time 6:09 AM CDT 8:33 PM CDT
Civil Twilight 5:40 AM CDT 9:02 PM CDT
Nautical Twilight 5:04 AM CDT 9:37 PM CDT
Astronomical Twilight 4:25 AM CDT 10:17 PM CDT
Moon 12:55 AM CDT (6/30) 2:00 PM CDT (6/30)
Length of Visible Light 15h 21m
Length of Day
14h 23m
Last Quarter, 45% of the Moon is Illuminated
Jun 30
Last Quarter
Jul 8
New
Jul 15
First Quarter
Jul 22
Full
Jul 29
Last Quarter

Hourly Weather History & Observations

Time (CDT) Temp. Heat Index Dew Point Humidity Pressure Visibility Wind Dir Wind Speed Gust Speed Precip Events Conditions
12:53 AM 66.0 °F - 64.0 °F 93% 29.80 in 9.0 mi Calm Calm - N/A   Clear
1:53 AM 64.9 °F - 63.0 °F 93% 29.79 in 10.0 mi Calm Calm - N/A   Partly Cloudy
2:53 AM 64.9 °F - 63.0 °F 93% 29.80 in 10.0 mi Calm Calm - N/A   Mostly Cloudy
3:53 AM 64.0 °F - 62.1 °F 93% 29.79 in 8.0 mi Calm Calm - N/A   Clear
4:53 AM 63.0 °F - 61.0 °F 93% 29.79 in 10.0 mi Calm Calm - N/A   Clear
5:53 AM 62.1 °F - 59.0 °F 90% 29.81 in 10.0 mi Calm Calm - N/A   Clear
6:53 AM 63.0 °F - 60.1 °F 90% 29.83 in 10.0 mi Calm Calm - N/A   Clear
7:53 AM 72.0 °F - 60.1 °F 66% 29.83 in 10.0 mi Calm Calm - N/A   Clear
8:53 AM 77.0 °F - 59.0 °F 54% 29.85 in 10.0 mi North 5.8 mph - N/A   Clear
9:53 AM 79.0 °F - 59.0 °F 50% 29.86 in 10.0 mi North 8.1 mph - N/A   Clear
10:53 AM 81.0 °F 81.1 °F 57.9 °F 45% 29.86 in 10.0 mi NNW 10.4 mph 18.4 mph N/A   Clear
11:53 AM 82.0 °F 81.6 °F 55.9 °F 41% 29.86 in 10.0 mi North 11.5 mph 20.7 mph N/A   Clear
12:53 PM 82.9 °F 82.6 °F 57.9 °F 42% 29.85 in 10.0 mi North 9.2 mph - N/A   Scattered Clouds
1:53 PM 84.9 °F 84.2 °F 57.9 °F 40% 29.85 in 10.0 mi North 10.4 mph - N/A   Scattered Clouds
2:53 PM 82.0 °F 81.6 °F 55.9 °F 41% 29.84 in 10.0 mi North 9.2 mph - N/A   Mostly Cloudy
3:53 PM 84.0 °F 83.3 °F 57.0 °F 40% 29.84 in 10.0 mi North 10.4 mph 18.4 mph N/A   Partly Cloudy
4:53 PM 84.9 °F 84.2 °F 57.9 °F 40% 29.83 in 10.0 mi NNE 9.2 mph - N/A   Partly Cloudy
5:53 PM 84.9 °F 83.9 °F 57.0 °F 38% 29.83 in 10.0 mi NNW 9.2 mph - N/A   Partly Cloudy
6:53 PM 82.9 °F 82.6 °F 57.9 °F 42% 29.83 in 10.0 mi North 8.1 mph - N/A   Scattered Clouds
7:53 PM 80.1 °F 80.9 °F 60.1 °F 50% 29.84 in 10.0 mi Calm Calm - N/A   Clear
8:53 PM 75.9 °F - 60.1 °F 58% 29.85 in 10.0 mi Calm Calm - N/A   Clear
9:53 PM 71.1 °F - 60.1 °F 68% 29.88 in 10.0 mi Calm Calm - N/A   Clear
10:53 PM 69.1 °F - 60.1 °F 73% 29.89 in 10.0 mi Calm Calm - N/A   Partly Cloudy
11:53 PM 71.1 °F - 59.0 °F 66% 29.89 in 10.0 mi Calm Calm - N/A   Clear